Погода в Дангриге

Белиз     16°58′08″N   88°13′42″W
темп.,
°C
ветер,
м/с
пор.,
м/с
влажн.,
%
обл.,
%
осадки,
мм/ч
давл.,
гПа
погр.,
м
21 января, чт
чт2100:00+24ссв47879 0.6 1018626
03:00+24с698939 1.1 1016631
06:00+23ссз589054 3.4 1018586
09:00+23ссз479084 1.2 1019505
12:00+26с577872 2.1 1018794
15:00+25св688329 1.2 1014774
18:00+24св578827 2.5 1015551
21:00+24всв468946 1.4 1016453
22 января, пт
пт2200:00+24св248836 3.1 1015408
03:00+24в468819 2.6 1013459
06:00+24вюв348710 4.7 1014441
09:00+25в35861 1.2 1015616
12:00+27в34750 1.6 1014761
15:00+26в34750 0.0 1012570
18:00+25в238616 0.0 1013490
21:00+25всв248712 0.0 1014351
23 января, сб
сб2300:00+25в368930 0.3 1014392
03:00+25в468975 0.6 1013409
06:00+25в468887 1.7 1014424
09:00+26в4789100 1.8 1016720
12:00+27в578053 2.6 1015951
15:00+26в457723 0.2 1012859
18:00+25св358822 0.2 1013532
21:00+25в468919 0.1 1015564
24 января, вс
вс2400:00+25в588914 0.8 1014531
03:00+25в698780 1.1 1013642
06:00+25в588790 1.8 1014716
09:00+26вюв4785100 0.1 1015888
12:00+27в4674100 0.2 1014962
15:00+26в467558 0.0 1011931
18:00+25всв468659 0.1 1012615
21:00+25в478912 0.2 1013561
25 января, пн
пн2500:00+25в47897 0.6 1012607
03:00+25в489013 0.4 1011609
06:00+25вюв58897 0.7 1012693
09:00+26вюв488421 0.1 1014930
12:00+26юв577611 0.1 1012690
15:00+26вюв47740 0.0 1010546
18:00+25в48850 0.0 1010409
21:00+25вюв48880 0.0 1011541